YZ-1 R/B (43708 NORAD) Tracking and Keplerian Element Data

This shows tracking and keplerian element data for the satellite.

Feedback or suggestion? Click here.




ElementValue
Catalog43708
NameYZ-1 R/B
Epoch Orbit36
Epoch Day343.21028801
Epoch Year2018
RAAN276.1822
Inclination55.0886
Eccentricity0.0111921
Argument of Perigee11.2561
Mean Anonmoly349.0025
Mean Motion1.77347347
Decay Rate-3.6E-07
L11 43708U 18093C 18343.21028801 -.00000036 00000-0 00000+0 0 9993
L22 43708 55.0886 276.1822 0111921 11.2561 349.0025 1.77347347 360

Live tracking and technical data element details for YZ-1 R/B (NORAD 43708). YZ-1 R/B can be tracked NOW for your location showing map with azimuth and elevation plus other details from your city location.

Track the satellite on the map from your city or location and see movement details for azimuth, elevation, latitude, longitude, range, height, and movement on the map or in text.







IsCatalogInMostPopularTable: catalog: 43708, numindb: 12
Update: records affected: 1



GetName: 43708 YZ-1 R/B

Hit Count: updated at: Tue, 11 Dec 2018 01:53:53 GMT